Weather History for K12N - January, 2012

Change the Weather History Date:

Wednesday, January 25, 2012

  Actual Average (KFWN) Record (KFWN)
Temperature  
Mean Temperature 36 °F -  
Max Temperature 41 °F 37 °F 62 °F (1967)
Min Temperature 32 °F 13 °F -14 °F (1987)
Degree Days  
Heating Degree Days 28    
Moisture  
Dew Point 25 °F    
Average Humidity 64    
Maximum Humidity 79    
Minimum Humidity 53    
Precipitation  
Precipitation 0.00 in - - ()
Sea Level Pressure  
Sea Level Pressure 30.27 in    
Wind  
Wind Speed 5 mph (NNW)    
Max Wind Speed 10 mph    
Max Gust Speed 23 mph    
Averages and records for this station are not official NWS values.
T = Trace of Precipitation, MM = Missing Value Source: NWS Daily Summary

Daily Weather History Graph

Daily Weather History Graph

Search for Another Location

Airport or City:

Trip Planner

Search our weather history database for the weather conditions in past years. The results will help you decide how hot, cold, wet, or windy it might be!

Date:

Astronomy

Jan. 25, 2012 Rise Set
Actual Time 7:16 AM EST 5:06 PM EST
Civil Twilight 6:46 AM EST 5:36 PM EST
Nautical Twilight 6:13 AM EST 6:09 PM EST
Astronomical Twilight 5:40 AM EST 6:42 PM EST
Moon 8:12 AM EST (1/25) 7:59 PM EST (1/25)
Length of Visible Light 10h 49m
Length of Day
9h 50m
Waxing Crescent, 6% of the Moon is Illuminated
Jan 25
Waxing Crescent
Jan 30
First Quarter
Feb 7
Full
Feb 14
Last Quarter
Feb 21
New

Hourly Weather History & Observations

Time (EST) Temp. Windchill Dew Point Humidity Pressure Visibility Wind Dir Wind Speed Gust Speed Precip Events Conditions
12:54 AM 39.0 °F 33.4 °F 27.0 °F 62% 30.17 in - North 8.1 mph - N/A   Unknown
1:54 AM 37.0 °F 30.4 °F 25.0 °F 62% 30.21 in - North 9.2 mph 23.0 mph N/A   Unknown
2:54 AM 37.0 °F 32.4 °F 24.1 °F 59% 30.22 in - NW 5.8 mph - N/A   Unknown
3:54 AM 36.0 °F 30.3 °F 25.0 °F 64% 30.23 in - Variable 6.9 mph - N/A   Unknown
4:54 AM 36.0 °F 31.1 °F 26.1 °F 67% 30.23 in - North 5.8 mph - N/A   Unknown
5:54 AM 36.0 °F 30.3 °F 25.0 °F 64% 30.28 in - Variable 6.9 mph - N/A   Unknown
6:54 AM 36.0 °F 33.3 °F 25.0 °F 64% 30.30 in - Variable 3.5 mph - N/A   Unknown
7:54 AM 35.1 °F 29.3 °F 24.1 °F 64% 30.29 in - Variable 6.9 mph - N/A   Unknown
8:54 AM 35.1 °F 30.1 °F 24.1 °F 64% 30.33 in - Variable 5.8 mph - N/A   Unknown
9:54 AM 36.0 °F 32.1 °F 24.1 °F 62% 30.33 in - Variable 4.6 mph - N/A   Unknown
10:54 AM 37.0 °F - 24.1 °F 59% 30.33 in - Calm Calm - N/A   Unknown
11:54 AM 39.0 °F 32.3 °F 25.0 °F 57% 30.31 in - WNW 10.4 mph - N/A   Unknown
12:54 PM 39.9 °F 34.5 °F 25.0 °F 55% 30.28 in - NNW 8.1 mph - N/A   Unknown
1:54 PM 41.0 °F 39.0 °F 25.0 °F 53% 30.25 in - Variable 3.5 mph - N/A   Unknown
2:54 PM 41.0 °F - 25.0 °F 53% 30.25 in - Calm Calm - N/A   Unknown
3:54 PM 39.9 °F - 26.1 °F 58% 30.25 in - Calm Calm - N/A   Unknown
4:54 PM 37.0 °F 34.5 °F 26.1 °F 65% 30.27 in - Variable 3.5 mph - N/A   Unknown
5:54 PM 35.1 °F 32.2 °F 25.0 °F 67% 30.29 in - North 3.5 mph - N/A   Unknown
6:54 PM 34.0 °F - 25.0 °F 70% 30.28 in - Calm Calm - N/A   Unknown
7:54 PM 32.0 °F - 25.0 °F 75% 30.27 in - Calm Calm - N/A   Unknown
8:54 PM 32.0 °F - 26.1 °F 79% 30.26 in - Calm Calm - N/A   Unknown
9:54 PM 33.1 °F 30.0 °F 25.0 °F 72% 30.26 in - NNW 3.5 mph - N/A   Unknown
10:54 PM 33.1 °F - 24.1 °F 70% 30.23 in - Calm Calm - N/A   Unknown
11:54 PM 33.1 °F - 25.0 °F 72% 30.25 in - Calm Calm - N/A   Unknown